Stations météo

Publicité
Cap Bear, France (7749): Température de l'air & dewpoint: 07.08.2020 13:00:00 - 13.08.2020 13:00:00 (CEST)Cap Bear, France (7749): Vitesse du vent & gusts: 07.08.2020 13:00:00 - 13.08.2020 13:00:00 (CEST)Cap Bear, France (7749): Direction du vent: 07.08.2020 13:00:00 - 13.08.2020 13:00:00 (CEST)Cap Bear, France (7749): reduced air pressure: 07.08.2020 13:00:00 - 13.08.2020 13:00:00 (CEST)Cap Bear, France (7749): visibility: 07.08.2020 13:00:00 - 13.08.2020 13:00:00 (CEST)Cap Bear, France (7749): Quantités de précipitations: 07.08.2020 13:00:00 - 13.08.2020 13:00:00 (CEST)
Date & Time tt [°C] td [°C] ff [km/h] ff [knt] fx [km/h] fx [knt] dd ppp [hPa] vv [km] rr [mm]
13.08.2020 13:00:00 - - - - - - - - - -
13.08.2020 12:00:00 - - - - - - - - - -
13.08.2020 11:00:00 - - - - - - - - - -
13.08.2020 10:00:00 - - - - - - - - - -
13.08.2020 09:00:00 - - - - - - - - - -
13.08.2020 08:00:00 - - - - - - - - - -
13.08.2020 07:00:00 - - - - - - - - - -
13.08.2020 06:00:00 - - - - - - - - - -
13.08.2020 05:00:00 - - - - - - - - - -
13.08.2020 04:00:00 - - - - - - - - - -
13.08.2020 03:00:00 - - - - - - - - - -
13.08.2020 02:00:00 - - - - - - - - - -
13.08.2020 01:00:00 - - - - - - - - - -
13.08.2020 00:00:00 - - - - - - - - - -
12.08.2020 23:00:00 - - - - - - - - - -
12.08.2020 22:00:00 - - - - - - - - - -
12.08.2020 21:00:00 - - - - - - - - - -
12.08.2020 20:00:00 - - - - - - - - - -
12.08.2020 19:00:00 - - - - - - - - - -
12.08.2020 18:00:00 - - - - - - - - - -
12.08.2020 17:00:00 - - - - - - - - - -
12.08.2020 16:00:00 - - - - - - - - - -
12.08.2020 15:00:00 - - - - - - - - - -
12.08.2020 14:00:00 - - - - - - - - - -
12.08.2020 13:00:00 - - - - - - - - - -
12.08.2020 12:00:00 - - - - - - - - - -
12.08.2020 11:00:00 - - - - - - - - - -
12.08.2020 10:00:00 - - - - - - - - - -
12.08.2020 09:00:00 - - - - - - - - - -
12.08.2020 08:00:00 - - - - - - - - - -
12.08.2020 07:00:00 - - - - - - - - - -
12.08.2020 06:00:00 - - - - - - - - - -
12.08.2020 05:00:00 - - - - - - - - - -
12.08.2020 04:00:00 - - - - - - - - - -
12.08.2020 03:00:00 23,3 22,6 5 3 18 10 SSW 1014,2 - 0,0
12.08.2020 02:00:00 23,8 23,6 10 6 17 9 NNW 1013,9 20 0,0
12.08.2020 01:00:00 23,9 22,9 9 5 22 12 WSW 1014,0 - 0,0
12.08.2020 00:00:00 23,7 22,7 4 2 13 7 SSE 1014,4 - 0,0
11.08.2020 23:00:00 23,9 23,4 2 1 17 9 WNW 1014,3 20 0,0
11.08.2020 22:00:00 23,9 23,6 17 9 25 13 WNW 1013,8 - 0,0
11.08.2020 21:00:00 24,1 23,6 5 3 20 11 NW 1012,8 - 0,0
11.08.2020 20:00:00 24,3 23,6 16 9 27 14 NW 1012,9 - 0,0
11.08.2020 19:00:00 24,5 23,5 6 3 24 13 N 1013,7 - 0,0
11.08.2020 18:00:00 24,3 23,8 20 11 30 16 SE 1013,9 - 0,0
11.08.2020 17:00:00 25,1 23,7 13 7 32 17 ESE 1014,4 - 0,0
11.08.2020 16:00:00 24,9 23,5 21 11 26 14 SE 1014,6 - 0,0
11.08.2020 15:00:00 24,7 22,9 13 7 19 10 SSE 1015,3 - 0,0
11.08.2020 14:00:00 25,3 22,8 13 7 16 9 SE 1015,7 - 0,0
11.08.2020 13:00:00 25,8 22,9 7 4 13 7 ENE 1015,8 - 0,0
11.08.2020 12:00:00 25,5 23,0 10 5 14 8 NNE 1015,5 - 0,0
11.08.2020 11:00:00 24,2 23,0 11 6 15 8 NNW 1015,4 0,1 0,0
11.08.2020 10:00:00 23,6 23,1 10 5 11 6 NNW 1014,9 - 0,0
11.08.2020 09:00:00 23,0 22,8 9 5 18 10 NNW 1014,7 - 0,0
11.08.2020 08:00:00 22,4 22,1 14 7 18 10 NW 1014,2 - 0,0
11.08.2020 07:00:00 22,5 21,8 2 1 10 5 SE 1014,1 - 0,0
11.08.2020 06:00:00 23,1 22,1 6 3 12 6 NNW 1014,0 - 0,0
11.08.2020 05:00:00 23,7 22,1 11 6 19 10 NW 1013,8 - 0,0
11.08.2020 04:00:00 23,1 22,6 17 9 22 12 NW 1014,0 - 0,0
11.08.2020 03:00:00 23,2 23,0 15 8 35 19 NW 1014,9 - 0,0
11.08.2020 02:00:00 23,0 22,8 27 14 35 19 NNW 1015,2 15 0,0
11.08.2020 01:00:00 23,0 23,0 29 16 39 21 NNW 1015,1 - 0,0
11.08.2020 00:00:00 23,3 23,0 34 18 46 25 NNW 1015,3 - 0,0
10.08.2020 23:00:00 24,0 22,8 38 21 48 26 NW 1014,8 - 0,0
10.08.2020 22:00:00 24,0 22,8 31 17 50 27 NW 1014,0 - 0,0
10.08.2020 21:00:00 23,2 23,0 40 22 45 24 NNW 1013,5 - 0,0
10.08.2020 20:00:00 23,1 22,8 35 19 46 25 NNW 1012,1 - 0,0
10.08.2020 19:00:00 23,3 22,6 39 21 43 23 NW 1011,8 - 0,0
10.08.2020 18:00:00 23,6 22,6 29 15 33 18 NNW 1011,6 - 0,0
10.08.2020 17:00:00 24,3 22,6 17 9 22 12 NNW 1012,0 - 0,0
10.08.2020 16:00:00 25,7 22,8 6 3 18 10 E 1012,6 - 0,0
10.08.2020 15:00:00 24,8 22,5 13 7 19 10 E 1013,1 - 0,0
10.08.2020 14:00:00 25,5 23,0 9 5 16 8 E 1013,4 15 0,0
10.08.2020 13:00:00 25,5 22,6 8 4 13 7 E 1013,6 - 0,0
10.08.2020 12:00:00 23,7 22,5 7 4 23 13 N 1013,6 - 0,0
10.08.2020 11:00:00 25,2 21,7 23 12 27 15 N 1014,2 12 0,0
10.08.2020 10:00:00 23,7 21,2 26 14 30 16 NW 1014,3 - 0,0
10.08.2020 09:00:00 22,9 21,2 19 11 27 15 NW 1014,1 - 0,0
10.08.2020 08:00:00 22,1 21,1 14 7 19 10 NW 1013,6 10 0,0
10.08.2020 07:00:00 22,6 21,2 16 9 23 12 NW 1013,2 - 0,0
10.08.2020 06:00:00 22,5 21,3 19 10 33 18 NW 1013,3 - 0,0
10.08.2020 05:00:00 22,5 21,3 26 14 39 21 NW 1013,6 - 0,0
10.08.2020 04:00:00 22,4 21,7 15 8 21 11 NW 1013,2 - 0,0
10.08.2020 03:00:00 22,3 22,0 10 6 29 16 NW 1013,6 - 0,0
10.08.2020 02:00:00 22,2 21,9 18 10 31 17 NW 1013,2 - 0,0
10.08.2020 01:00:00 22,4 22,1 24 13 31 17 NW 1013,4 - 0,0
10.08.2020 00:00:00 22,4 22,1 29 16 43 23 WNW 1013,7 6 0,0
09.08.2020 23:00:00 22,6 22,6 21 12 42 23 NW 1013,8 - 0,0
09.08.2020 22:00:00 22,8 22,5 26 14 33 18 NW 1013,5 - 0,0
09.08.2020 21:00:00 23,1 22,3 5 3 15 8 S 1013,3 - 0,0
09.08.2020 20:00:00 23,9 22,2 5 3 26 14 S 1013,8 12 0,0
09.08.2020 19:00:00 24,0 22,4 29 16 37 20 WNW 1013,7 - 0,0
09.08.2020 18:00:00 25,3 21,6 23 13 41 22 S 1013,7 - 0,0
09.08.2020 17:00:00 23,3 22,3 27 14 30 16 SSE 1014,2 - 0,0
09.08.2020 16:00:00 23,6 22,0 21 11 28 15 SSE 1015,3 - 0,0
09.08.2020 15:00:00 23,9 21,8 24 13 27 15 SSE 1015,6 - 0,0
09.08.2020 14:00:00 24,6 21,7 16 9 20 11 SE 1016,2 - 0,0
09.08.2020 13:00:00 23,8 21,5 9 5 16 9 SE 1017,0 - 0,0
09.08.2020 12:00:00 23,3 21,4 6 3 9 5 NE 1017,1 - 0,0
09.08.2020 11:00:00 22,2 21,7 4 2 11 6 ENE 1017,5 0,1 0,0
09.08.2020 10:00:00 22,5 22,3 6 4 11 6 NE 1017,5 - 0,0
09.08.2020 09:00:00 22,1 22,1 12 6 20 11 NNW 1017,5 - -
09.08.2020 08:00:00 21,7 21,7 16 8 23 12 NW 1017,4 - 0,0
09.08.2020 07:00:00 21,8 21,8 18 10 29 16 NNW 1017,2 - 0,2
09.08.2020 06:00:00 22,1 22,1 27 15 42 23 NNW 1017,0 - 0,0
09.08.2020 05:00:00 22,2 22,2 32 17 40 22 NNW 1016,5 0,1 0,0
09.08.2020 04:00:00 22,3 21,8 31 17 40 21 NW 1016,2 - 0,0
09.08.2020 03:00:00 23,7 22,5 29 16 35 19 NW 1015,8 - 0,0
09.08.2020 02:00:00 24,2 22,1 23 13 31 17 NNW 1015,7 20 0,0
09.08.2020 01:00:00 24,2 22,1 20 11 27 15 NW 1015,9 - 0,0
09.08.2020 00:00:00 23,6 22,2 24 13 36 19 NW 1015,8 - 0,0
08.08.2020 23:00:00 25,8 22,3 30 16 35 19 NW 1015,7 - 0,0
08.08.2020 22:00:00 24,9 22,4 19 10 26 14 WNW 1015,6 - 0,0
08.08.2020 21:00:00 28,7 22,4 10 5 26 14 NW 1015,0 - 0,0
08.08.2020 20:00:00 24,7 22,9 22 12 35 19 S 1015,0 - 0,0
08.08.2020 19:00:00 24,5 22,9 28 15 33 18 SSE 1015,1 - 0,0
08.08.2020 18:00:00 24,4 22,7 26 14 36 19 SSE 1015,8 - 0,0
08.08.2020 17:00:00 24,6 22,5 31 17 36 19 SSE 1016,2 15 0,0
08.08.2020 16:00:00 24,7 22,2 25 14 29 16 SSE 1017,0 - 0,0
08.08.2020 15:00:00 25,1 22,0 21 12 25 14 SSE 1017,5 - 0,0
08.08.2020 14:00:00 24,8 21,7 17 9 22 12 SSE 1018,1 20 0,0
08.08.2020 13:00:00 24,1 21,4 10 6 18 10 SE 1018,7 - 0,0
08.08.2020 12:00:00 24,6 21,3 7 4 12 6 E 1019,3 - 0,0
08.08.2020 11:00:00 24,7 21,8 8 5 16 9 N 1019,5 12 0,0
08.08.2020 10:00:00 24,0 20,9 13 7 19 11 NW 1019,8 - 0,0
08.08.2020 09:00:00 22,8 20,9 14 8 28 15 NNW 1019,8 - 0,0
08.08.2020 08:00:00 21,6 20,9 22 12 34 18 NNW 1019,6 - 0,0
08.08.2020 07:00:00 21,8 21,6 24 13 36 19 NNW 1019,1 - 0,0
08.08.2020 06:00:00 21,7 21,7 26 14 32 17 NNW 1018,6 - 0,0
08.08.2020 05:00:00 21,7 21,7 26 14 37 20 NNW 1018,7 0,5 0,0
08.08.2020 04:00:00 21,6 21,6 32 18 49 26 NNW 1018,8 - 0,0
08.08.2020 03:00:00 21,6 21,6 39 21 45 24 NW 1018,8 - 0,0
08.08.2020 02:00:00 21,8 21,8 31 17 35 19 NNW 1018,4 6 0,0
08.08.2020 01:00:00 21,9 21,9 26 14 30 16 NW 1018,3 - 0,0
08.08.2020 00:00:00 22,6 22,4 18 10 27 15 NW 1017,7 - 0,0
07.08.2020 23:00:00 23,5 22,5 19 10 22 12 NW 1017,5 - 0,0
07.08.2020 22:00:00 23,5 22,3 5 3 9 5 NNW 1017,1 - 0,0
07.08.2020 21:00:00 23,9 22,7 7 4 19 11 NNW 1016,8 - 0,0
07.08.2020 20:00:00 24,0 22,8 15 8 24 13 SSE 1016,6 - 0,0
07.08.2020 19:00:00 24,1 22,9 14 7 22 12 SSE 1016,7 - 0,0
07.08.2020 18:00:00 24,1 22,9 5 3 12 7 SE 1017,0 - 0,0
07.08.2020 17:00:00 23,6 22,2 9 5 14 7 SE 1017,5 - 0,0
07.08.2020 16:00:00 24,2 21,7 9 5 17 9 SE 1017,9 - 0,0
07.08.2020 15:00:00 24,4 20,9 8 4 13 7 E 1018,4 - 0,0
07.08.2020 14:00:00 24,5 20,8 8 5 17 9 N 1018,4 15 0,0
07.08.2020 13:00:00 23,9 20,6 14 8 18 10 N 1018,4 - 0,0

tt = Température de l'air
td = dewpoint
ff = Vitesse du vent
fx = gusts
dd = Direction du vent
ppp = reduced air pressure
vv = visibility
rr = Quantités de précipitations

stations d'obs. à proximité